EW1722 Weather Reports


time (UTC)temp
F
wind
direction
speed
knots
gust
knots
rain 1hr
in
rain 24hr
in
rain mn
in
humidity
%
barometer
mb
20260506091646 57 285 0.0 0.0 0.00 0.00 0.00 99
20260506081643 57 285 0.0 0.0 0.00 0.00 0.00 99
20260506071639 61 284 0.0 0.0 0.00 0.00 0.00 93
20260506061638 63 289 0.0 0.0 0.00 0.15 0.15 89
20260506041635 65 277 0.0 1.7 0.00 0.15 0.15 79
20260506031633 68 288 0.0 0.0 0.00 0.15 0.15 64
20260506021633 69 280 0.9 4.3 0.00 0.15 0.15 63
20260506011633 74 287 0.9 1.7 0.00 0.15 0.15 59
20260506001633 77 235 1.7 8.7 0.00 0.15 0.15 54
20260505231628 79 187 0.0 1.7 0.00 0.15 0.15 55
20260505221625 78 161 0.0 7.0 0.00 0.15 0.15 56
20260505211621 78 286 7.0 11.3 0.00 0.15 0.15 61
20260505201619 78 244 0.0 7.0 0.00 0.15 0.15 70
20260505191615 77 12 0.0 8.7 0.00 0.15 0.15 82
20260505181614 71 256 0.0 0.0 0.00 0.15 0.15 96
20260505171614 70 26 0.0 0.0 0.00 0.15 0.15 99
20260505161611 64 2 0.0 0.0 0.00 0.15 0.15 2
20260505151611 59 89 0.0 0.0 0.00 0.15 0.15 38
20260505121610 58 88 0.0 0.0 0.00 0.15 0.15 52
20260505111607 57 88 0.0 0.0 0.00 0.14 0.14 51
20260505101606 58 86 0.0 0.0 0.07 0.13 0.13 49